AFR6727 VABB-LFPG

Flight info

Callsign AFR6727
Flight time N/A
Altitude 31000
Route ANOLI2A ISRIS G208 APANO/N0499F320 G451 AAE Z8 VIKIT P628 RK G202 ZB L750 RANAH/N0487F340 B801 NINOP B475 DOLOS B449 ETRAP B447 KRS B143 TUNEK A909 RODAR M11 ERLEV L850 ADEKI N644 TETRO M10 SARPI UM10 OLUPO UL851 KARDE UN644 SIN UW90 INB UL746 ODERO DCT OPT/N0475F360 DCT SOKRU DCT ABETI DCT TAGAS DCT RENKA L610 STAUB/N0456F240 L610 MAMOR DCT ASPAT DCT VIBOM DCT BETEX DCT IDOSA DCT TOLVU/N0475F370 DCT RAPOR DCT VEDUS VEDUS9W
Aircraft B77L/H-SDE1E2E3FGHIJ2J3J4J5M1RWXY/LB1D1

Departure

Time 2026-04-27 06:25
Airport Chhatrapati Shivaji Maharaj International Airport (VABB)

Arrival

Time N/A
Airport Charles de Gaulle International Airport (LFPG)
Time Latitude Longitude Altitude Speed Heading
2026-04-27 06:16 19.09243 72.86899 54 ft 0 kts 223°
2026-04-27 06:19 19.09247 72.86903 49 ft 2 kts 223°
2026-04-27 06:19 19.09261 72.86917 47 ft 3 kts 223°
2026-04-27 06:19 19.09274 72.86930 46 ft 1 kts 223°
2026-04-27 06:20 19.09287 72.86941 47 ft 3 kts 200°
2026-04-27 06:20 19.09302 72.86943 46 ft 3 kts 144°
2026-04-27 06:20 19.09316 72.86929 51 ft 3 kts 130°
2026-04-27 06:20 19.09321 72.86923 50 ft 1 kts 133°
2026-04-27 06:22 19.09293 72.86954 46 ft 12 kts 134°
2026-04-27 06:22 19.09223 72.87060 50 ft 19 kts 129°
2026-04-27 06:22 19.09138 72.87123 51 ft 11 kts 104°
2026-04-27 06:23 19.09137 72.87207 52 ft 11 kts 88°
2026-04-27 06:23 19.09090 72.87262 49 ft 11 kts 166°
2026-04-27 06:23 19.09050 72.87329 50 ft 13 kts 94°
2026-04-27 06:23 19.09052 72.87497 49 ft 27 kts 89°
2026-04-27 06:24 19.09055 72.87692 47 ft 27 kts 89°
2026-04-27 06:24 19.09059 72.87887 50 ft 27 kts 89°
2026-04-27 06:24 19.09030 72.88043 48 ft 19 kts 149°
2026-04-27 06:24 19.08907 72.88039 51 ft 19 kts 222°
2026-04-27 06:25 19.08886 72.87891 50 ft 35 kts 269°
2026-04-27 06:25 19.08879 72.87315 55 ft 122 kts 269°
2026-04-27 06:25 19.08855 72.86138 193 ft 185 kts 268°
2026-04-27 06:25 19.08825 72.84765 1085 ft 192 kts 267°
2026-04-27 06:26 19.08799 72.83349 1996 ft 196 kts 271°
2026-04-27 06:26 19.08799 72.82403 2150 ft 210 kts 272°
2026-04-27 06:26 19.08793 72.81065 2272 ft 228 kts 271°
2026-04-27 06:26 19.08774 72.79360 2719 ft 236 kts 272°
2026-04-27 06:27 19.08748 72.77543 3025 ft 256 kts 272°
2026-04-27 06:27 19.08715 72.75634 3555 ft 265 kts 272°
2026-04-27 06:27 19.08858 72.73697 4085 ft 265 kts 292°
2026-04-27 06:27 19.09850 72.72095 4705 ft 262 kts 322°
2026-04-27 06:28 19.11444 72.71192 5358 ft 263 kts 347°
2026-04-27 06:28 19.13280 72.71121 5963 ft 269 kts 11°
2026-04-27 06:28 19.15019 72.71874 6539 ft 275 kts 37°
2026-04-27 06:28 19.16511 72.73168 7001 ft 281 kts 33°
2026-04-27 06:29 19.18241 72.74125 7650 ft 281 kts 18°
2026-04-27 06:29 19.20158 72.74562 8268 ft 286 kts
2026-04-27 06:29 19.22136 72.74495 8852 ft 290 kts 354°
2026-04-27 06:29 19.24174 72.74310 9420 ft 297 kts 355°
2026-04-27 06:30 19.26256 72.74162 9906 ft 299 kts 356°
2026-04-27 06:30 19.28343 72.74034 9973 ft 302 kts 356°
2026-04-27 06:30 19.30439 72.73937 9986 ft 303 kts
2026-04-27 06:30 19.32566 72.74130 10321 ft 312 kts
2026-04-27 06:31 19.34793 72.74480 10445 ft 336 kts
2026-04-27 06:31 19.37172 72.74889 10610 ft 357 kts
2026-04-27 06:31 19.39702 72.75322 10765 ft 378 kts
2026-04-27 06:31 19.42347 72.75763 11146 ft 390 kts
2026-04-27 06:32 19.45055 72.76202 11747 ft 396 kts
2026-04-27 06:32 19.47792 72.76636 12421 ft 400 kts
2026-04-27 06:32 19.50554 72.77067 13061 ft 405 kts
2026-04-27 06:32 19.53357 72.77501 13679 ft 410 kts
2026-04-27 06:33 19.56158 72.77933 14299 ft 412 kts
2026-04-27 06:33 19.59036 72.78376 14965 ft 414 kts
2026-04-27 06:33 19.61862 72.78810 15512 ft 418 kts
2026-04-27 06:33 19.64750 72.79255 16061 ft 422 kts
2026-04-27 06:34 19.67658 72.79702 16780 ft 421 kts
2026-04-27 06:34 19.70569 72.80151 17418 ft 424 kts